FW0689 Weather Reports


Display with metric or nautical units.
time (UTC)temp
F
wind
direction
speed
MPH
gust
MPH
rain 1hr
in
rain 24hr
in
rain mn
in
humidity
%
barometer
mb
20260904061323 68 217 0.0 0.0 0.00 0.00 0.00 38 1014.4
20260904055323 68 248 0.0 0.0 0.00 0.00 0.00 39 1014.5
20260904054322 68 230 0.0 0.0 0.00 0.00 0.00 39 1014.6
20260904052424 68 226 0.0 0.0 0.00 0.00 0.00 40 1014.8
20260904050424 67 214 0.0 0.0 0.00 0.00 0.00 40 1015.1
20260904044542 68 215 0.0 0.0 0.00 0.00 0.00 40 1015.2
20260904043525 67 217 0.0 0.0 0.00 0.00 0.00 40 1015.5
20260904041524 67 226 0.0 0.0 0.00 0.00 0.00 40 1015.3
20260904035524 67 214 0.0 0.0 0.00 0.00 0.00 40 1015.7
20260904034622 67 205 0.0 0.0 0.00 0.00 0.00 40 1015.8
20260904033624 67 214 0.0 0.0 0.00 0.00 0.00 40 1015.9
20260904032625 67 214 0.0 0.0 0.00 0.00 0.00 40 1016.1
20260904031621 67 209 0.0 0.0 0.00 0.00 0.00 40 1016.1
20260904030622 67 203 0.0 0.0 0.00 0.00 0.00 40 1016.2
20260904025623 67 209 0.0 0.0 0.00 0.00 0.00 40 1016.4
20260904022623 67 238 0.0 0.0 0.00 0.00 0.00 40 1016.9
20260904021624 67 212 0.0 0.0 0.00 0.00 0.00 40 1017.1
20260904020623 66 214 0.0 0.0 0.00 0.00 0.00 40 1017.1
20260904015622 67 207 0.0 0.0 0.00 0.00 0.00 40 1017.1
20260904014625 66 206 0.0 0.0 0.00 0.00 0.00 40 1017.3
20260904013624 66 228 0.0 0.0 0.00 0.00 0.00 40 1017.6
20260904012722 66 212 0.0 0.0 0.00 0.00 0.00 40 1017.4
20260904011724 66 209 0.0 0.0 0.00 0.00 0.00 40 1017.6
20260904010822 66 210 0.0 0.0 0.00 0.00 0.00 40 1017.8
20260904005823 66 205 0.0 0.0 0.00 0.00 0.00 40 1017.6
20260904002823 65 214 0.0 0.0 0.00 0.00 0.00 40 1018.1
20260904001824 65 205 0.0 0.0 0.00 0.00 0.00 40 1018.3
20260904000823 65 211 0.0 0.0 0.00 0.00 0.00 40 1018.3
20260903235825 65 208 0.0 0.0 0.00 0.00 0.00 40 1018.5
20260903234823 65 206 0.0 0.0 0.00 0.00 0.00 40 1018.7
20260903233822 66 197 0.0 0.0 0.00 0.00 0.00 39 1018.7
20260903231823 66 200 0.0 0.0 0.00 0.00 0.00 40 1019.1
20260903230825 66 206 0.0 0.0 0.00 0.00 0.00 40 1019.3
20260903225923 67 205 0.0 0.0 0.00 0.00 0.00 39 1019.3
20260903224924 66 223 0.0 0.0 0.00 0.00 0.00 40 1019.4
20260903223923 66 233 0.0 0.0 0.00 0.00 0.00 40 1019.4
20260903222923 66 227 0.0 0.0 0.00 0.00 0.00 40 1019.7
20260903221923 66 228 0.0 0.0 0.00 0.00 0.00 40 1019.6
20260903215943 66 215 0.0 0.0 0.00 0.00 0.00 40 1019.9
20260903214945 65 232 0.0 0.0 0.00 0.00 0.00 40 1020.1
20260903214043 65 222 0.0 0.0 0.00 0.00 0.00 40 1020.1
20260903213045 65 212 0.0 0.0 0.00 0.00 0.00 40 1020.1
20260903212145 65 226 0.0 0.0 0.00 0.00 0.00 40 1020.3
20260903211144 64 215 0.0 0.0 0.00 0.00 0.00 40 1020.5
20260903205301 64 212 0.0 0.0 0.00 0.00 0.00 40 1020.6
20260903204345 64 238 0.0 0.0 0.00 0.00 0.00 39 1020.7
20260903202444 64 198 0.0 0.0 0.00 0.00 0.00 40 1020.4
20260903201446 64 209 0.0 0.0 0.00 0.00 0.00 40 1020.7
20260903200544 64 217 0.0 0.0 0.00 0.00 0.00 40 1020.7
20260903195543 65 225 0.0 0.0 0.00 0.00 0.00 40 1020.7
20260903194544 65 235 0.0 0.0 0.00 0.00 0.00 40 1020.9
20260903192742 65 206 0.0 0.0 0.00 0.00 0.00 39 1020.7
20260903191744 65 209 0.0 0.0 0.00 0.00 0.00 39 1020.7
20260903190743 65 252 0.0 0.0 0.00 0.00 0.00 39 1020.7
20260903185745 66 202 0.0 0.0 0.00 0.00 0.00 38 1020.5
20260903184800 66 247 0.0 0.0 0.00 0.00 0.00 39 1020.7
20260903183846 66 241 0.0 0.0 0.00 0.00 0.00 39 1020.7
20260903182843 67 249 0.0 0.0 0.00 0.00 0.00 39 1020.6
20260903181845 67 233 0.0 0.0 0.00 0.00 0.00 39 1020.3
20260903180843 67 249 0.0 0.0 0.00 0.00 0.00 38 1020.8
20260903175844 67 240 0.0 0.0 0.00 0.00 0.00 38 1020.7
20260903174042 68 269 0.0 0.0 0.00 0.00 0.00 38 1020.7
20260903173046 68 276 0.0 0.0 0.00 0.00 0.00 38 1020.6
20260903172145 68 261 0.0 0.0 0.00 0.00 0.00 38 1020.5
20260903170145 69 263 0.0 0.0 0.00 0.00 0.00 38 1020.2
20260903165143 69 260 0.0 0.0 0.00 0.00 0.00 38 1020.2
20260903164144 69 259 0.0 0.0 0.00 0.00 0.00 38 1020.3
20260903163143 69 268 0.0 0.0 0.00 0.00 0.00 38 1020.3
20260903161146 68 247 0.0 0.0 0.00 0.00 0.00 37 1020.2
20260903160145 68 258 0.0 0.0 0.00 0.00 0.00 38 1020.4
20260903155143 68 264 0.0 0.0 0.00 0.00 0.00 38 1020.5
20260903154144 69 293 0.0 0.0 0.00 0.00 0.00 38 1020.5
20260903153145 69 286 0.0 0.0 0.00 0.00 0.00 37 1020.3
20260903152144 70 275 0.0 0.0 0.00 0.00 0.00 37 1020.1
20260903151146 70 268 0.0 0.0 0.00 0.00 0.00 37 1020.0
20260903150158 70 250 0.0 0.0 0.00 0.00 0.00 37 1020.0
20260903145244 70 268 0.0 0.0 0.00 0.00 0.00 37 1020.2
20260903143245 69 274 0.0 0.0 0.00 0.00 0.00 38 1020.1
20260903142244 69 284 0.0 0.0 0.00 0.00 0.00 38 1020.3
20260903141245 69 268 0.0 0.0 0.00 0.00 0.00 38 1020.1
20260903140342 70 281 0.0 0.0 0.00 0.00 0.00 38 1020.0
20260903135345 70 294 0.0 0.0 0.00 0.00 0.00 37 1019.8
20260903134345 70 269 0.0 0.0 0.00 0.00 0.00 38 1019.8
20260903133443 70 271 0.0 0.0 0.00 0.00 0.00 37 1019.9
20260903132444 70 281 0.0 0.0 0.00 0.00 0.00 37 1019.8
20260903125644 69 279 0.0 0.0 0.00 0.00 0.00 38 1019.8
20260903124644 70 277 0.0 0.0 0.00 0.00 0.00 37 1019.6
20260903122746 70 247 0.0 0.0 0.00 0.00 0.00 38 1019.6
20260903121843 71 241 0.0 0.0 0.00 0.00 0.00 37 1019.4
20260903120843 70 251 0.0 0.0 0.00 0.00 0.00 37 1019.4
20260903115844 71 240 0.0 0.0 0.00 0.00 0.00 38 1019.4
20260903114900 70 247 0.0 0.0 0.00 0.00 0.00 38 1019.3
20260903113942 70 229 0.0 0.0 0.00 0.00 0.00 38 1019.4
20260903112944 70 247 0.0 0.0 0.00 0.00 0.00 38 1019.2
20260903111945 70 248 0.0 0.0 0.00 0.00 0.00 38 1019.4
20260903111044 70 251 0.0 0.0 0.00 0.00 0.00 38 1019.4
20260903110142 69 245 0.0 0.0 0.00 0.00 0.00 39 1019.2
20260903105143 69 246 0.0 0.0 0.00 0.00 0.00 39 1019.4
20260903104145 68 234 0.0 0.0 0.00 0.00 0.00 39 1019.4
20260903103145 68 252 0.0 0.0 0.00 0.00 0.00 39 1019.6
20260903102144 67 218 0.0 0.0 0.00 0.00 0.00 39 1019.6
20260903101158 67 233 0.0 0.0 0.00 0.00 0.00 39 1019.7
20260903100245 66 233 0.0 0.0 0.00 0.00 0.00 38 1019.6
20260903095246 65 217 0.0 0.0 0.00 0.00 0.00 40 1019.5
20260903094243 65 243 0.0 0.0 0.00 0.00 0.00 40 1019.7
20260903093246 65 263 0.0 0.0 0.00 0.00 0.00 40 1019.7
20260903092342 65 255 0.0 0.0 0.00 0.00 0.00 40 1019.6
20260903091344 65 244 0.0 0.0 0.00 0.00 0.00 40 1019.6
20260903090344 66 219 0.0 0.0 0.00 0.00 0.00 40 1019.3
20260903085343 66 231 0.0 0.0 0.00 0.00 0.00 40 1019.0
20260903084345 66 235 0.0 0.0 0.00 0.00 0.00 40 1019.2
20260903083343 65 212 0.0 0.0 0.00 0.00 0.00 40 1019.3
20260903082358 65 226 0.0 0.0 0.00 0.00 0.00 40 1019.3
20260903081443 65 233 0.0 0.0 0.00 0.00 0.00 40 1019.2
20260903080443 64 205 0.0 0.0 0.00 0.00 0.00 40 1019.3
20260903074458 64 210 0.0 0.0 0.00 0.00 0.00 40 1019.6
20260903073443 63 215 0.0 0.0 0.00 0.00 0.00 40 1019.4
20260903072444 63 207 0.0 0.0 0.00 0.00 0.00 41 1019.3
20260903071459 63 214 0.0 0.0 0.00 0.00 0.00 41 1019.5
20260903070545 62 208 0.0 0.0 0.00 0.00 0.00 41 1019.6
20260903064544 62 207 0.0 0.0 0.00 0.00 0.00 41 1019.4
20260903063543 62 209 0.0 0.0 0.00 0.00 0.00 41 1019.4
20260903062546 62 223 0.0 0.0 0.00 0.00 0.00 41 1019.9